Time,TemperatureF,DewpointF,PressureIn,WindDirection,WindDirectionDegrees,WindSpeedMPH,WindSpeedGustMPH,Humidity,HourlyPrecipIn,Conditions,Clouds,dailyrainin,SoftwareType,DateUTC
2013-07-01 00:02:00,74.6,72.1,29.83,SSW,192,2.0,3.0,92,0.00,,,0.00,Wunderground v.1.15,2013-07-01 04:02:00,
2013-07-01 00:03:00,74.6,71.8,29.83,SSW,192,0.0,3.0,91,0.00,,,0.00,Wunderground v.1.15,2013-07-01 04:03:00,
2013-07-01 00:04:00,74.6,71.8,29.83,SSW,192,1.0,3.0,91,0.00,,,0.00,Wunderground v.1.15,2013-07-01 04:04:00,
2013-07-01 00:09:00,74.3,71.5,29.83,SSW,209,4.0,4.0,91,0.00,,,0.00,Wunderground v.1.15,2013-07-01 04:09:00,
2013-07-01 00:12:00,74.2,71.4,29.83,SSW,209,1.0,4.0,91,0.00,,,0.00,Wunderground v.1.15,2013-07-01 04:12:00,
2013-07-01 00:18:00,74.1,71.6,29.84,SSW,209,0.0,4.0,92,0.00,,,0.00,Wunderground v.1.15,2013-07-01 04:18:00,
2013-07-01 00:24:00,74.0,71.5,29.83,SSW,209,3.0,3.0,92,0.00,,,0.00,Wunderground v.1.15,2013-07-01 04:24:00,
2013-07-01 00:30:00,73.9,71.4,29.83,SSW,209,0.0,1.0,92,0.00,,,0.00,Wunderground v.1.15,2013-07-01 04:30:00,
2013-07-01 00:36:00,73.8,71.3,29.83,SW,221,0.0,2.0,92,0.00,,,0.00,Wunderground v.1.15,2013-07-01 04:36:00,
2013-07-01 00:42:00,73.6,71.1,29.84,SW,221,1.0,1.0,92,0.00,,,0.00,Wunderground v.1.15,2013-07-01 04:42:00,
2013-07-01 00:47:00,73.5,71.0,29.84,SW,222,1.0,1.0,92,0.00,,,0.00,Wunderground v.1.15,2013-07-01 04:47:00,
2013-07-01 00:53:00,73.5,71.0,29.84,SW,227,0.0,1.0,92,0.00,,,0.00,Wunderground v.1.15,2013-07-01 04:53:00,
2013-07-01 00:59:00,73.4,70.9,29.84,SW,227,0.0,1.0,92,0.00,,,0.00,Wunderground v.1.15,2013-07-01 04:59:00,
2013-07-01 01:04:00,73.2,70.4,29.84,SW,227,0.0,0.0,91,0.00,,,0.00,Wunderground v.1.15,2013-07-01 05:04:00,
2013-07-01 01:10:00,73.1,70.0,29.84,SSW,201,0.0,1.0,90,0.00,,,0.00,Wunderground v.1.15,2013-07-01 05:10:00,
2013-07-01 01:16:00,73.2,69.8,29.84,SSW,201,0.0,0.0,89,0.00,,,0.00,Wunderground v.1.15,2013-07-01 05:16:00,
2013-07-01 01:21:00,73.3,69.5,29.84,SSW,201,1.0,1.0,88,0.00,,,0.00,Wunderground v.1.15,2013-07-01 05:21:00,
2013-07-01 01:27:00,73.3,69.5,29.84,SSW,201,1.0,2.0,88,0.00,,,0.00,Wunderground v.1.15,2013-07-01 05:27:00,
2013-07-01 01:33:00,73.3,69.5,29.84,SSW,201,0.0,0.0,88,0.00,,,0.00,Wunderground v.1.15,2013-07-01 05:33:00,
2013-07-01 01:39:00,73.3,69.5,29.84,SSW,201,0.0,0.0,88,0.00,,,0.00,Wunderground v.1.15,2013-07-01 05:39:00,
2013-07-01 01:45:00,73.3,69.2,29.84,SSW,213,0.0,0.0,87,0.00,,,0.00,Wunderground v.1.15,2013-07-01 05:45:00,
2013-07-01 01:51:00,73.3,69.2,29.83,SSW,213,0.0,0.0,87,0.00,,,0.00,Wunderground v.1.15,2013-07-01 05:51:00,
2013-07-01 01:57:00,73.1,69.0,29.84,SSW,213,0.0,0.0,87,0.00,,,0.00,Wunderground v.1.15,2013-07-01 05:57:00,
2013-07-01 02:02:00,73.1,69.0,29.84,SSW,213,0.0,2.0,87,0.00,,,0.00,Wunderground v.1.15,2013-07-01 06:02:00,
2013-07-01 02:07:00,73.1,68.7,29.84,SSW,213,0.0,2.0,86,0.00,,,0.00,Wunderground v.1.15,2013-07-01 06:07:00,
2013-07-01 02:12:00,73.1,68.7,29.84,SSW,197,0.0,2.0,86,0.00,,,0.00,Wunderground v.1.15,2013-07-01 06:12:00,
2013-07-01 02:17:00,73.0,68.6,29.83,SSW,197,0.0,2.0,86,0.00,,,0.00,Wunderground v.1.15,2013-07-01 06:17:00,
2013-07-01 02:22:00,72.9,68.5,29.83,SSW,197,0.0,1.0,86,0.00,,,0.00,Wunderground v.1.15,2013-07-01 06:22:00,
2013-07-01 02:27:00,72.8,68.4,29.83,SSW,197,0.0,3.0,86,0.00,,,0.00,Wunderground v.1.15,2013-07-01 06:27:00,
2013-07-01 02:32:00,72.7,68.6,29.83,SSW,197,0.0,1.0,87,0.00,,,0.00,Wunderground v.1.15,2013-07-01 06:32:00,
2013-07-01 02:37:00,72.6,68.5,29.82,SSW,197,0.0,2.0,87,0.00,,,0.00,Wunderground v.1.15,2013-07-01 06:37:00,
2013-07-01 02:42:00,72.3,68.5,29.82,SSW,197,0.0,0.0,88,0.00,,,0.00,Wunderground v.1.15,2013-07-01 06:42:00,
2013-07-01 02:47:00,72.2,68.4,29.82,SSW,197,0.0,1.0,88,0.00,,,0.00,Wunderground v.1.15,2013-07-01 06:47:00,
2013-07-01 02:52:00,72.2,68.8,29.83,SSW,197,0.0,1.0,89,0.00,,,0.00,Wunderground v.1.15,2013-07-01 06:52:00,
2013-07-01 02:57:00,72.2,68.8,29.83,SSW,197,0.0,2.0,89,0.00,,,0.00,Wunderground v.1.15,2013-07-01 06:57:00,
2013-07-01 03:02:00,72.1,68.7,29.83,SSW,197,0.0,1.0,89,0.00,,,0.00,Wunderground v.1.15,2013-07-01 07:02:00,
2013-07-01 03:07:00,71.8,68.7,29.83,SSW,197,0.0,1.0,90,0.00,,,0.00,Wunderground v.1.15,2013-07-01 07:07:00,
2013-07-01 03:12:00,71.7,68.6,29.82,SSW,197,0.0,0.0,90,0.00,,,0.00,Wunderground v.1.15,2013-07-01 07:12:00,
2013-07-01 03:17:00,71.6,68.8,29.83,SSW,197,0.0,0.0,91,0.00,,,0.00,Wunderground v.1.15,2013-07-01 07:17:00,
2013-07-01 03:22:00,71.5,68.7,29.83,SSW,197,0.0,0.0,91,0.00,,,0.00,Wunderground v.1.15,2013-07-01 07:22:00,
2013-07-01 03:27:00,71.5,69.1,29.83,SSW,197,0.0,1.0,92,0.00,,,0.00,Wunderground v.1.15,2013-07-01 07:27:00,
2013-07-01 03:32:00,71.4,69.0,29.83,SSW,197,0.0,1.0,92,0.00,,,0.00,Wunderground v.1.15,2013-07-01 07:32:00,
2013-07-01 03:37:00,71.3,68.9,29.83,SSW,197,0.0,1.0,92,0.00,,,0.00,Wunderground v.1.15,2013-07-01 07:37:00,
2013-07-01 03:42:00,71.3,68.9,29.83,SSW,197,0.0,0.0,92,0.00,,,0.00,Wunderground v.1.15,2013-07-01 07:42:00,
2013-07-01 03:47:00,71.3,68.9,29.83,SSW,197,0.0,0.0,92,0.00,,,0.00,Wunderground v.1.15,2013-07-01 07:47:00,
2013-07-01 03:52:00,71.3,68.9,29.83,SSW,197,0.0,0.0,92,0.00,,,0.00,Wunderground v.1.15,2013-07-01 07:52:00,
2013-07-01 03:57:00,71.2,68.8,29.83,SSW,197,0.0,1.0,92,0.00,,,0.00,Wunderground v.1.15,2013-07-01 07:57:00,
2013-07-01 04:02:00,71.2,68.8,29.83,SSW,197,0.0,0.0,92,0.00,,,0.00,Wunderground v.1.15,2013-07-01 08:02:00,
2013-07-01 04:07:00,71.2,68.8,29.83,SSW,197,0.0,0.0,92,0.00,,,0.00,Wunderground v.1.15,2013-07-01 08:07:00,
2013-07-01 04:12:00,71.2,68.8,29.83,SSW,197,0.0,0.0,92,0.00,,,0.00,Wunderground v.1.15,2013-07-01 08:12:00,
2013-07-01 04:17:00,71.3,68.9,29.83,SSW,197,0.0,0.0,92,0.00,,,0.00,Wunderground v.1.15,2013-07-01 08:17:00,
2013-07-01 04:22:00,71.2,68.8,29.83,SSW,197,0.0,0.0,92,0.00,,,0.00,Wunderground v.1.15,2013-07-01 08:22:00,
2013-07-01 04:27:00,71.2,68.8,29.83,SSW,197,0.0,0.0,92,0.00,,,0.00,Wunderground v.1.15,2013-07-01 08:27:00,
2013-07-01 04:32:00,71.2,68.8,29.84,SSW,197,0.0,1.0,92,0.00,,,0.00,Wunderground v.1.15,2013-07-01 08:32:00,
2013-07-01 04:37:00,71.1,68.7,29.84,SSW,197,0.0,1.0,92,0.00,,,0.00,Wunderground v.1.15,2013-07-01 08:37:00,
2013-07-01 04:42:00,71.2,69.1,29.84,SSW,197,1.0,1.0,93,0.00,,,0.00,Wunderground v.1.15,2013-07-01 08:42:00,
2013-07-01 04:48:00,71.2,69.1,29.84,SSW,197,0.0,1.0,93,0.00,,,0.00,Wunderground v.1.15,2013-07-01 08:48:00,
2013-07-01 04:53:00,71.3,69.2,29.84,SSW,197,0.0,1.0,93,0.00,,,0.00,Wunderground v.1.15,2013-07-01 08:53:00,
2013-07-01 04:58:00,71.2,69.1,29.85,SSW,197,0.0,1.0,93,0.00,,,0.00,Wunderground v.1.15,2013-07-01 08:58:00,
2013-07-01 05:03:00,71.2,69.1,29.85,SSW,197,0.0,1.0,93,0.00,,,0.00,Wunderground v.1.15,2013-07-01 09:03:00,
2013-07-01 05:08:00,71.3,69.2,29.85,SSW,197,0.0,1.0,93,0.00,,,0.00,Wunderground v.1.15,2013-07-01 09:08:00,
2013-07-01 05:13:00,71.3,69.2,29.85,SSW,197,0.0,0.0,93,0.00,,,0.00,Wunderground v.1.15,2013-07-01 09:13:00,
2013-07-01 05:18:00,71.2,69.1,29.85,SSW,197,0.0,0.0,93,0.00,,,0.00,Wunderground v.1.15,2013-07-01 09:18:00,
2013-07-01 05:23:00,71.1,69.0,29.85,SSW,197,0.0,0.0,93,0.00,,,0.00,Wunderground v.1.15,2013-07-01 09:23:00,
2013-07-01 05:28:00,71.0,69.2,29.85,SSW,197,0.0,0.0,94,0.00,,,0.00,Wunderground v.1.15,2013-07-01 09:28:00,
2013-07-01 05:33:00,70.9,69.1,29.85,SSW,197,0.0,0.0,94,0.00,,,0.00,Wunderground v.1.15,2013-07-01 09:33:00,
2013-07-01 05:38:00,70.9,69.1,29.85,SSW,197,0.0,0.0,94,0.00,,,0.00,Wunderground v.1.15,2013-07-01 09:38:00,
2013-07-01 05:43:00,70.9,69.1,29.86,SSW,197,0.0,0.0,94,0.00,,,0.00,Wunderground v.1.15,2013-07-01 09:43:00,
2013-07-01 05:48:00,70.9,69.1,29.86,SSW,197,0.0,0.0,94,0.00,,,0.00,Wunderground v.1.15,2013-07-01 09:48:00,
2013-07-01 05:53:00,71.0,69.2,29.86,SSW,197,0.0,0.0,94,0.00,,,0.00,Wunderground v.1.15,2013-07-01 09:53:00,
2013-07-01 05:58:00,71.0,69.5,29.86,SSW,197,0.0,2.0,95,0.00,,,0.00,Wunderground v.1.15,2013-07-01 09:58:00,
2013-07-01 06:03:00,71.1,69.6,29.86,SSW,197,0.0,0.0,95,0.00,,,0.00,Wunderground v.1.15,2013-07-01 10:03:00,
2013-07-01 06:08:00,71.1,69.6,29.86,SSW,197,0.0,0.0,95,0.00,,,0.00,Wunderground v.1.15,2013-07-01 10:08:00,
2013-07-01 06:13:00,71.2,69.7,29.86,SSW,197,2.0,2.0,95,0.00,,,0.00,Wunderground v.1.15,2013-07-01 10:13:00,
2013-07-01 06:18:00,71.2,69.7,29.86,SSW,197,0.0,3.0,95,0.00,,,0.00,Wunderground v.1.15,2013-07-01 10:18:00,
2013-07-01 06:24:00,71.1,69.6,29.86,SSW,197,0.0,0.0,95,0.00,,,0.00,Wunderground v.1.15,2013-07-01 10:24:00,
2013-07-01 06:29:00,71.2,69.7,29.87,SSW,197,0.0,0.0,95,0.00,,,0.00,Wunderground v.1.15,2013-07-01 10:29:00,
2013-07-01 06:34:00,71.2,69.7,29.87,SSW,197,0.0,2.0,95,0.00,,,0.00,Wunderground v.1.15,2013-07-01 10:34:00,
2013-07-01 06:39:00,71.2,69.7,29.87,SSW,197,0.0,2.0,95,0.00,,,0.00,Wunderground v.1.15,2013-07-01 10:39:00,
2013-07-01 06:44:00,71.2,69.7,29.87,SSW,197,0.0,1.0,95,0.00,,,0.00,Wunderground v.1.15,2013-07-01 10:44:00,
2013-07-01 06:49:00,71.3,69.8,29.88,SSW,197,0.0,1.0,95,0.00,,,0.00,Wunderground v.1.15,2013-07-01 10:49:00,
2013-07-01 06:54:00,71.3,69.8,29.87,SSW,197,0.0,1.0,95,0.00,,,0.00,Wunderground v.1.15,2013-07-01 10:54:00,
2013-07-01 06:59:00,71.4,69.9,29.87,SSW,197,0.0,1.0,95,0.00,,,0.00,Wunderground v.1.15,2013-07-01 10:59:00,
2013-07-01 07:04:00,71.7,70.5,29.88,SSW,197,0.0,0.0,96,0.00,,,0.00,Wunderground v.1.15,2013-07-01 11:04:00,
2013-07-01 07:09:00,71.9,70.4,29.88,SSW,197,1.0,2.0,95,0.00,,,0.00,Wunderground v.1.15,2013-07-01 11:09:00,
2013-07-01 07:14:00,72.0,70.5,29.88,SSW,206,0.0,3.0,95,0.00,,,0.00,Wunderground v.1.15,2013-07-01 11:14:00,
2013-07-01 07:19:00,72.2,70.7,29.88,SSW,206,1.0,3.0,95,0.00,,,0.00,Wunderground v.1.15,2013-07-01 11:19:00,
2013-07-01 07:24:00,72.7,71.2,29.88,SW,217,1.0,2.0,95,0.00,,,0.00,Wunderground v.1.15,2013-07-01 11:24:00,
2013-07-01 07:29:00,73.6,71.8,29.88,SW,217,1.0,2.0,94,0.00,,,0.00,Wunderground v.1.15,2013-07-01 11:29:00,
2013-07-01 07:34:00,73.7,71.5,29.88,SSW,208,1.0,3.0,93,0.00,,,0.00,Wunderground v.1.15,2013-07-01 11:34:00,
2013-07-01 07:39:00,73.9,71.4,29.88,SSW,207,1.0,4.0,92,0.00,,,0.00,Wunderground v.1.15,2013-07-01 11:39:00,
2013-07-01 07:44:00,73.8,71.0,29.88,SSW,211,0.0,2.0,91,0.00,,,0.00,Wunderground v.1.15,2013-07-01 11:44:00,
2013-07-01 07:49:00,73.7,71.2,29.88,SSW,211,1.0,2.0,92,0.00,,,0.00,Wunderground v.1.15,2013-07-01 11:49:00,
2013-07-01 07:54:00,73.6,71.1,29.88,SW,217,2.0,3.0,92,0.00,,,0.00,Wunderground v.1.15,2013-07-01 11:54:00,
2013-07-01 07:59:00,73.4,71.3,29.88,SW,217,0.0,3.0,93,0.00,,,0.01,Wunderground v.1.15,2013-07-01 11:59:00,
2013-07-01 08:05:00,73.1,71.0,29.88,SW,217,0.0,2.0,93,0.09,,,0.02,Wunderground v.1.15,2013-07-01 12:05:00,
2013-07-01 08:10:00,72.9,71.1,29.88,SW,217,0.0,0.0,94,0.08,,,0.02,Wunderground v.1.15,2013-07-01 12:10:00,
2013-07-01 08:15:00,73.0,71.5,29.89,SW,217,0.0,1.0,95,0.05,,,0.02,Wunderground v.1.15,2013-07-01 12:15:00,
2013-07-01 08:20:00,73.1,71.3,29.89,SW,217,0.0,1.0,94,0.00,,,0.02,Wunderground v.1.15,2013-07-01 12:20:00,
2013-07-01 08:25:00,73.4,71.9,29.89,SW,217,1.0,2.0,95,0.00,,,0.02,Wunderground v.1.15,2013-07-01 12:25:00,
2013-07-01 08:30:00,73.6,71.8,29.88,SW,217,0.0,0.0,94,0.00,,,0.02,Wunderground v.1.15,2013-07-01 12:30:00,
2013-07-01 08:35:00,73.7,71.9,29.89,SW,217,0.0,0.0,94,0.00,,,0.02,Wunderground v.1.15,2013-07-01 12:35:00,
2013-07-01 08:40:00,74.4,73.2,29.89,SW,217,2.0,2.0,96,0.00,,,0.02,Wunderground v.1.15,2013-07-01 12:40:00,
2013-07-01 08:45:00,74.5,72.7,29.88,WNW,295,0.0,2.0,94,0.00,,,0.02,Wunderground v.1.15,2013-07-01 12:45:00,
2013-07-01 08:50:00,75.2,73.4,29.88,SSW,199,2.0,5.0,94,0.00,,,0.02,Wunderground v.1.15,2013-07-01 12:50:00,
2013-07-01 08:55:00,74.9,72.7,29.89,SSW,202,1.0,5.0,93,0.00,,,0.02,Wunderground v.1.15,2013-07-01 12:55:00,
2013-07-01 09:00:00,74.9,72.7,29.89,SSW,202,0.0,1.0,93,0.00,,,0.02,Wunderground v.1.15,2013-07-01 13:00:00,
2013-07-01 09:05:00,75.2,73.0,29.89,SSW,202,0.0,2.0,93,0.00,,,0.02,Wunderground v.1.15,2013-07-01 13:05:00,
2013-07-01 09:10:00,74.9,72.1,29.89,SSW,202,1.0,1.0,91,0.00,,,0.02,Wunderground v.1.15,2013-07-01 13:10:00,
2013-07-01 09:15:00,74.7,72.2,29.89,SSW,202,0.0,1.0,92,0.00,,,0.02,Wunderground v.1.15,2013-07-01 13:15:00,
2013-07-01 09:20:00,75.0,72.2,29.89,SSE,148,0.0,1.0,91,0.00,,,0.02,Wunderground v.1.15,2013-07-01 13:20:00,
2013-07-01 09:25:00,75.5,73.0,29.89,SE,145,0.0,2.0,92,0.00,,,0.02,Wunderground v.1.15,2013-07-01 13:25:00,
2013-07-01 09:30:00,75.9,72.8,29.89,SE,129,0.0,2.0,90,0.00,,,0.02,Wunderground v.1.15,2013-07-01 13:30:00,
2013-07-01 09:35:00,75.5,72.4,29.89,South,181,2.0,2.0,90,0.00,,,0.02,Wunderground v.1.15,2013-07-01 13:35:00,
2013-07-01 09:40:00,75.6,72.5,29.89,SW,224,0.0,3.0,90,0.00,,,0.02,Wunderground v.1.15,2013-07-01 13:40:00,
2013-07-01 09:45:00,76.1,73.3,29.89,WSW,238,0.0,3.0,91,0.00,,,0.02,Wunderground v.1.15,2013-07-01 13:45:00,
2013-07-01 09:51:00,76.2,73.1,29.89,WSW,237,0.0,1.0,90,0.00,,,0.02,Wunderground v.1.15,2013-07-01 13:51:00,
2013-07-01 09:56:00,75.8,73.0,29.89,WSW,246,0.0,2.0,91,0.00,,,0.02,Wunderground v.1.15,2013-07-01 13:56:00,
2013-07-01 10:01:00,75.2,72.4,29.89,West,274,0.0,2.0,91,0.00,,,0.03,Wunderground v.1.15,2013-07-01 14:01:00,
2013-07-01 10:06:00,74.8,72.3,29.89,West,274,0.0,2.0,92,0.00,,,0.03,Wunderground v.1.15,2013-07-01 14:06:00,
2013-07-01 10:11:00,74.6,72.1,29.89,SSE,155,1.0,2.0,92,0.00,,,0.03,Wunderground v.1.15,2013-07-01 14:11:00,
2013-07-01 10:16:00,74.2,72.0,29.89,SSE,155,1.0,2.0,93,0.00,,,0.04,Wunderground v.1.15,2013-07-01 14:16:00,
2013-07-01 10:21:00,74.3,72.5,29.89,SSE,155,0.0,1.0,94,0.00,,,0.04,Wunderground v.1.15,2013-07-01 14:21:00,
2013-07-01 10:26:00,74.0,72.2,29.89,SE,136,0.0,3.0,94,0.00,,,0.04,Wunderground v.1.15,2013-07-01 14:26:00,
2013-07-01 10:31:00,74.2,72.7,29.90,East,90,1.0,1.0,95,0.00,,,0.04,Wunderground v.1.15,2013-07-01 14:31:00,
2013-07-01 10:36:00,74.3,72.8,29.90,East,90,0.0,1.0,95,0.00,,,0.04,Wunderground v.1.15,2013-07-01 14:36:00,
2013-07-01 10:41:00,74.2,72.7,29.90,East,91,0.0,1.0,95,0.00,,,0.04,Wunderground v.1.15,2013-07-01 14:41:00,
2013-07-01 10:46:00,73.9,72.4,29.90,East,91,0.0,1.0,95,0.00,,,0.04,Wunderground v.1.15,2013-07-01 14:46:00,
2013-07-01 10:51:00,74.0,72.5,29.90,ENE,63,0.0,1.0,95,0.00,,,0.04,Wunderground v.1.15,2013-07-01 14:51:00,
2013-07-01 10:56:00,74.2,72.7,29.90,SE,134,1.0,5.0,95,0.00,,,0.04,Wunderground v.1.15,2013-07-01 14:56:00,
2013-07-01 11:01:00,74.1,72.6,29.90,SSW,192,1.0,2.0,95,0.00,,,0.04,Wunderground v.1.15,2013-07-01 15:01:00,
2013-07-01 11:06:00,74.2,72.7,29.90,South,184,2.0,5.0,95,0.00,,,0.04,Wunderground v.1.15,2013-07-01 15:06:00,
2013-07-01 11:11:00,74.3,72.8,29.90,SSW,207,0.0,2.0,95,0.00,,,0.04,Wunderground v.1.15,2013-07-01 15:11:00,
2013-07-01 11:16:00,74.3,72.8,29.90,SW,225,0.0,2.0,95,0.00,,,0.04,Wunderground v.1.15,2013-07-01 15:16:00,
2013-07-01 11:21:00,74.2,72.7,29.91,SW,230,0.0,1.0,95,0.00,,,0.04,Wunderground v.1.15,2013-07-01 15:21:00,
2013-07-01 11:26:00,74.6,73.4,29.91,SW,230,1.0,2.0,96,0.00,,,0.04,Wunderground v.1.15,2013-07-01 15:26:00,
2013-07-01 11:31:00,74.9,73.4,29.90,SSW,206,0.0,4.0,95,0.00,,,0.04,Wunderground v.1.15,2013-07-01 15:31:00,
2013-07-01 11:36:00,74.9,73.1,29.90,SSW,206,0.0,4.0,94,0.00,,,0.04,Wunderground v.1.15,2013-07-01 15:36:00,
2013-07-01 11:41:00,75.0,73.2,29.90,SE,136,1.0,5.0,94,0.00,,,0.04,Wunderground v.1.15,2013-07-01 15:41:00,
2013-07-01 11:46:00,75.1,73.3,29.91,SE,136,0.0,5.0,94,0.00,,,0.04,Wunderground v.1.15,2013-07-01 15:46:00,
2013-07-01 11:51:00,75.3,73.8,29.91,South,181,0.0,2.0,95,0.00,,,0.04,Wunderground v.1.15,2013-07-01 15:51:00,
2013-07-01 11:57:00,74.9,72.7,29.90,East,97,1.0,2.0,93,0.00,,,0.04,Wunderground v.1.15,2013-07-01 15:57:00,
2013-07-01 12:02:00,74.6,72.4,29.90,East,97,0.0,1.0,93,0.00,,,0.04,Wunderground v.1.15,2013-07-01 16:02:00,
2013-07-01 12:07:00,74.4,72.6,29.90,East,97,0.0,1.0,94,0.00,,,0.05,Wunderground v.1.15,2013-07-01 16:07:00,
2013-07-01 12:12:00,74.3,72.5,29.89,East,97,0.0,2.0,94,0.00,,,0.05,Wunderground v.1.15,2013-07-01 16:12:00,
2013-07-01 12:17:00,74.2,72.7,29.89,East,97,0.0,2.0,95,0.09,,,0.06,Wunderground v.1.15,2013-07-01 16:17:00,
2013-07-01 12:22:00,74.1,72.3,29.89,East,97,0.0,1.0,94,0.08,,,0.07,Wunderground v.1.15,2013-07-01 16:22:00,
2013-07-01 12:27:00,74.4,73.2,29.89,East,97,0.0,1.0,96,0.08,,,0.07,Wunderground v.1.15,2013-07-01 16:27:00,
2013-07-01 12:32:00,74.0,72.5,29.89,East,97,0.0,1.0,95,0.05,,,0.07,Wunderground v.1.15,2013-07-01 16:32:00,
2013-07-01 12:37:00,74.6,73.4,29.90,East,97,0.0,1.0,96,0.04,,,0.08,Wunderground v.1.15,2013-07-01 16:37:00,
2013-07-01 12:42:00,75.1,73.9,29.90,ESE,120,0.0,2.0,96,0.04,,,0.08,Wunderground v.1.15,2013-07-01 16:42:00,
2013-07-01 12:47:00,75.1,73.9,29.90,ESE,120,0.0,2.0,96,0.04,,,0.08,Wunderground v.1.15,2013-07-01 16:47:00,
2013-07-01 12:52:00,76.2,74.7,29.90,SSW,192,0.0,3.0,95,0.00,,,0.08,Wunderground v.1.15,2013-07-01 16:52:00,
2013-07-01 12:57:00,76.3,74.4,29.90,ESE,107,1.0,4.0,94,0.00,,,0.08,Wunderground v.1.15,2013-07-01 16:57:00,
2013-07-01 13:02:00,76.9,75.7,29.90,SW,218,3.0,3.0,96,0.00,,,0.08,Wunderground v.1.15,2013-07-01 17:02:00,
2013-07-01 13:07:00,78.1,75.9,29.91,SW,230,0.0,5.0,93,0.00,,,0.08,Wunderground v.1.15,2013-07-01 17:07:00,
2013-07-01 13:12:00,77.0,74.5,29.90,SE,130,0.0,3.0,92,0.00,,,0.08,Wunderground v.1.15,2013-07-01 17:12:00,
2013-07-01 13:17:00,77.5,75.0,29.90,SSW,194,0.0,3.0,92,0.00,,,0.08,Wunderground v.1.15,2013-07-01 17:17:00,
2013-07-01 13:22:00,77.6,74.4,29.89,SSW,203,5.0,5.0,90,0.00,,,0.08,Wunderground v.1.15,2013-07-01 17:22:00,
2013-07-01 13:27:00,77.4,73.6,29.89,SW,229,0.0,6.0,88,0.00,,,0.08,Wunderground v.1.15,2013-07-01 17:27:00,
2013-07-01 13:32:00,78.7,75.2,29.89,SSW,198,2.0,2.0,89,0.00,,,0.08,Wunderground v.1.15,2013-07-01 17:32:00,
2013-07-01 13:37:00,77.8,74.0,29.89,SSW,202,0.0,3.0,88,0.00,,,0.08,Wunderground v.1.15,2013-07-01 17:37:00,
2013-07-01 13:42:00,77.1,73.6,29.88,ENE,65,0.0,2.0,89,0.00,,,0.08,Wunderground v.1.15,2013-07-01 17:42:00,
2013-07-01 13:47:00,76.7,73.9,29.88,SSE,153,0.0,2.0,91,0.00,,,0.08,Wunderground v.1.15,2013-07-01 17:47:00,
2013-07-01 13:52:00,77.0,73.8,29.88,ENE,78,0.0,3.0,90,0.00,,,0.08,Wunderground v.1.15,2013-07-01 17:52:00,
2013-07-01 13:57:00,78.8,75.6,29.88,NNW,344,1.0,3.0,90,0.00,,,0.08,Wunderground v.1.15,2013-07-01 17:57:00,
2013-07-01 14:02:00,79.2,75.3,29.88,NE,42,1.0,5.0,88,0.00,,,0.08,Wunderground v.1.15,2013-07-01 18:02:00,
2013-07-01 14:07:00,79.4,75.5,29.89,NE,49,1.0,5.0,88,0.00,,,0.08,Wunderground v.1.15,2013-07-01 18:07:00,
2013-07-01 14:12:00,79.8,75.9,29.89,SW,225,3.0,6.0,88,0.00,,,0.08,Wunderground v.1.15,2013-07-01 18:12:00,
2013-07-01 14:17:00,80.7,75.1,29.89,South,190,5.0,10.0,83,0.00,,,0.08,Wunderground v.1.15,2013-07-01 18:17:00,
2013-07-01 14:22:00,80.1,74.1,29.89,South,189,1.0,5.0,82,0.00,,,0.08,Wunderground v.1.15,2013-07-01 18:22:00,
2013-07-01 14:27:00,80.3,75.0,29.89,SSW,203,0.0,8.0,84,0.00,,,0.08,Wunderground v.1.15,2013-07-01 18:27:00,
2013-07-01 14:32:00,79.8,74.9,29.89,East,101,1.0,6.0,85,0.00,,,0.08,Wunderground v.1.15,2013-07-01 18:32:00,
2013-07-01 14:37:00,79.8,74.9,29.89,SSW,202,1.0,6.0,85,0.00,,,0.08,Wunderground v.1.15,2013-07-01 18:37:00,
2013-07-01 14:42:00,79.4,74.1,29.89,East,91,1.0,3.0,84,0.00,,,0.08,Wunderground v.1.15,2013-07-01 18:42:00,
2013-07-01 14:48:00,78.9,74.4,29.90,East,91,0.0,3.0,86,0.00,,,0.08,Wunderground v.1.15,2013-07-01 18:48:00,
2013-07-01 14:53:00,79.1,73.5,29.89,East,80,0.0,3.0,83,0.00,,,0.08,Wunderground v.1.15,2013-07-01 18:53:00,
2013-07-01 14:58:00,79.5,74.2,29.90,East,88,1.0,4.0,84,0.00,,,0.08,Wunderground v.1.15,2013-07-01 18:58:00,
2013-07-01 15:03:00,80.8,75.9,29.89,East,87,2.0,5.0,85,0.00,,,0.08,Wunderground v.1.15,2013-07-01 19:03:00,
2013-07-01 15:08:00,81.1,74.0,29.89,NE,36,0.0,8.0,79,0.00,,,0.08,Wunderground v.1.15,2013-07-01 19:08:00,
2013-07-01 15:13:00,80.0,74.4,29.89,WSW,252,1.0,5.0,83,0.00,,,0.08,Wunderground v.1.15,2013-07-01 19:13:00,
2013-07-01 15:18:00,79.5,73.9,29.89,ENE,67,1.0,5.0,83,0.00,,,0.08,Wunderground v.1.15,2013-07-01 19:18:00,
2013-07-01 15:23:00,80.7,74.3,29.89,East,86,1.0,6.0,81,0.00,,,0.08,Wunderground v.1.15,2013-07-01 19:23:00,
2013-07-01 15:28:00,81.2,74.8,29.89,NNW,347,3.0,6.0,81,0.00,,,0.08,Wunderground v.1.15,2013-07-01 19:28:00,
2013-07-01 15:33:00,81.7,74.2,29.89,WSW,239,5.0,6.0,78,0.00,,,0.08,Wunderground v.1.15,2013-07-01 19:33:00,
2013-07-01 15:38:00,81.7,73.4,29.89,West,269,4.0,6.0,76,0.00,,,0.08,Wunderground v.1.15,2013-07-01 19:38:00,
2013-07-01 15:43:00,81.4,73.1,29.89,East,92,0.0,3.0,76,0.00,,,0.08,Wunderground v.1.15,2013-07-01 19:43:00,
2013-07-01 15:48:00,81.2,72.9,29.89,South,190,3.0,5.0,76,0.00,,,0.08,Wunderground v.1.15,2013-07-01 19:48:00,
2013-07-01 15:53:00,80.6,72.3,29.89,ESE,103,1.0,3.0,76,0.00,,,0.08,Wunderground v.1.15,2013-07-01 19:53:00,
2013-07-01 15:58:00,80.7,72.4,29.89,ESE,105,0.0,3.0,76,0.00,,,0.08,Wunderground v.1.15,2013-07-01 19:58:00,
2013-07-01 16:03:00,81.3,73.8,29.89,SSW,211,2.0,6.0,78,0.00,,,0.08,Wunderground v.1.15,2013-07-01 20:03:00,
2013-07-01 16:08:00,82.0,74.1,29.89,SSW,194,0.0,6.0,77,0.00,,,0.08,Wunderground v.1.15,2013-07-01 20:08:00,
2013-07-01 16:13:00,82.1,73.0,29.89,South,191,1.0,5.0,74,0.00,,,0.08,Wunderground v.1.15,2013-07-01 20:13:00,
2013-07-01 16:18:00,82.5,73.8,29.89,East,92,2.0,5.0,75,0.00,,,0.08,Wunderground v.1.15,2013-07-01 20:18:00,
2013-07-01 16:23:00,81.7,73.8,29.89,NE,53,4.0,4.0,77,0.00,,,0.08,Wunderground v.1.15,2013-07-01 20:23:00,
2013-07-01 16:29:00,81.1,74.0,29.89,NW,306,0.0,4.0,79,0.00,,,0.08,Wunderground v.1.15,2013-07-01 20:29:00,
2013-07-01 16:34:00,81.2,72.9,29.89,ESE,111,2.0,3.0,76,0.00,,,0.08,Wunderground v.1.15,2013-07-01 20:34:00,
2013-07-01 16:39:00,80.9,73.0,29.89,SSE,168,1.0,7.0,77,0.00,,,0.08,Wunderground v.1.15,2013-07-01 20:39:00,
2013-07-01 16:44:00,81.2,72.9,29.89,SSE,167,2.0,7.0,76,0.00,,,0.08,Wunderground v.1.15,2013-07-01 20:44:00,
2013-07-01 16:49:00,81.4,73.5,29.89,NNE,15,0.0,7.0,77,0.00,,,0.08,Wunderground v.1.15,2013-07-01 20:49:00,
2013-07-01 16:54:00,81.1,73.6,29.89,West,279,3.0,5.0,78,0.00,,,0.08,Wunderground v.1.15,2013-07-01 20:54:00,
2013-07-01 16:59:00,81.0,73.9,29.89,South,188,2.0,6.0,79,0.00,,,0.08,Wunderground v.1.15,2013-07-01 20:59:00,
2013-07-01 17:04:00,80.9,73.4,29.89,WNW,303,1.0,6.0,78,0.00,,,0.08,Wunderground v.1.15,2013-07-01 21:04:00,
2013-07-01 17:09:00,81.8,73.9,29.89,South,186,1.0,6.0,77,0.00,,,0.08,Wunderground v.1.15,2013-07-01 21:09:00,
2013-07-01 17:14:00,82.0,72.9,29.89,SSW,194,1.0,5.0,74,0.00,,,0.08,Wunderground v.1.15,2013-07-01 21:14:00,
2013-07-01 17:19:00,81.4,73.1,29.89,SW,236,3.0,5.0,76,0.00,,,0.08,Wunderground v.1.15,2013-07-01 21:19:00,
2013-07-01 17:24:00,80.8,72.5,29.89,ESE,121,1.0,6.0,76,0.00,,,0.08,Wunderground v.1.15,2013-07-01 21:24:00,
2013-07-01 17:29:00,80.8,72.1,29.89,SE,129,2.0,6.0,75,0.00,,,0.08,Wunderground v.1.15,2013-07-01 21:29:00,
2013-07-01 17:34:00,80.8,72.1,29.90,ESE,109,2.0,4.0,75,0.00,,,0.08,Wunderground v.1.15,2013-07-01 21:34:00,
2013-07-01 17:39:00,81.0,71.5,29.90,North,7,0.0,4.0,73,0.00,,,0.08,Wunderground v.1.15,2013-07-01 21:39:00,
2013-07-01 17:44:00,81.2,72.1,29.89,ENE,74,1.0,4.0,74,0.00,,,0.08,Wunderground v.1.15,2013-07-01 21:44:00,
2013-07-01 17:49:00,81.2,72.5,29.89,SSW,210,3.0,4.0,75,0.00,,,0.08,Wunderground v.1.15,2013-07-01 21:49:00,
2013-07-01 17:54:00,80.7,72.4,29.89,SSW,204,1.0,3.0,76,0.00,,,0.08,Wunderground v.1.15,2013-07-01 21:54:00,
2013-07-01 17:59:00,80.4,72.5,29.89,SSW,204,1.0,1.0,77,0.00,,,0.08,Wunderground v.1.15,2013-07-01 21:59:00,
2013-07-01 18:05:00,80.2,72.7,29.89,NW,319,1.0,3.0,78,0.00,,,0.08,Wunderground v.1.15,2013-07-01 22:05:00,
2013-07-01 18:10:00,80.0,73.3,29.90,SW,230,2.0,5.0,80,0.00,,,0.08,Wunderground v.1.15,2013-07-01 22:10:00,
2013-07-01 18:15:00,80.0,73.6,29.90,ENE,68,2.0,5.0,81,0.00,,,0.08,Wunderground v.1.15,2013-07-01 22:15:00,
2013-07-01 18:20:00,80.0,74.0,29.90,ESE,115,0.0,1.0,82,0.00,,,0.08,Wunderground v.1.15,2013-07-01 22:20:00,
2013-07-01 18:25:00,79.8,73.1,29.90,East,81,1.0,2.0,80,0.00,,,0.08,Wunderground v.1.15,2013-07-01 22:25:00,
2013-07-01 18:30:00,80.0,73.6,29.90,East,87,1.0,1.0,81,0.00,,,0.08,Wunderground v.1.15,2013-07-01 22:30:00,
2013-07-01 18:35:00,80.0,73.3,29.90,NE,55,0.0,2.0,80,0.00,,,0.08,Wunderground v.1.15,2013-07-01 22:35:00,
2013-07-01 18:40:00,80.2,74.2,29.90,NNE,32,0.0,1.0,82,0.00,,,0.08,Wunderground v.1.15,2013-07-01 22:40:00,
2013-07-01 18:45:00,80.3,73.9,29.90,NNE,33,0.0,1.0,81,0.00,,,0.08,Wunderground v.1.15,2013-07-01 22:45:00,
2013-07-01 18:50:00,80.5,74.1,29.91,East,89,2.0,2.0,81,0.00,,,0.08,Wunderground v.1.15,2013-07-01 22:50:00,
2013-07-01 18:55:00,80.3,73.9,29.91,ENE,60,2.0,2.0,81,0.00,,,0.08,Wunderground v.1.15,2013-07-01 22:55:00,
2013-07-01 19:00:00,80.3,73.9,29.91,NNE,26,1.0,1.0,81,0.00,,,0.08,Wunderground v.1.15,2013-07-01 23:00:00,
2013-07-01 19:05:00,80.2,73.8,29.91,NNE,27,2.0,3.0,81,0.00,,,0.08,Wunderground v.1.15,2013-07-01 23:05:00,
2013-07-01 19:10:00,80.0,73.6,29.90,ESE,115,2.0,3.0,81,0.00,,,0.08,Wunderground v.1.15,2013-07-01 23:10:00,
2013-07-01 19:15:00,79.8,73.4,29.91,ESE,117,0.0,5.0,81,0.00,,,0.08,Wunderground v.1.15,2013-07-01 23:15:00,
2013-07-01 19:20:00,79.8,73.8,29.91,ENE,67,0.0,2.0,82,0.00,,,0.08,Wunderground v.1.15,2013-07-01 23:20:00,
2013-07-01 19:25:00,79.8,73.8,29.90,SE,144,1.0,4.0,82,0.00,,,0.08,Wunderground v.1.15,2013-07-01 23:25:00,
2013-07-01 19:30:00,79.7,74.1,29.91,SSW,207,0.0,1.0,83,0.00,,,0.08,Wunderground v.1.15,2013-07-01 23:30:00,
2013-07-01 19:36:00,79.6,74.0,29.91,SSW,198,1.0,1.0,83,0.00,,,0.08,Wunderground v.1.15,2013-07-01 23:36:00,
2013-07-01 19:41:00,79.5,74.2,29.91,ENE,70,0.0,2.0,84,0.00,,,0.08,Wunderground v.1.15,2013-07-01 23:41:00,
2013-07-01 19:46:00,79.4,74.1,29.91,NE,35,5.0,5.0,84,0.00,,,0.08,Wunderground v.1.15,2013-07-01 23:46:00,
2013-07-01 19:51:00,79.3,74.4,29.91,SE,142,2.0,3.0,85,0.00,,,0.08,Wunderground v.1.15,2013-07-01 23:51:00,
2013-07-01 19:56:00,79.1,74.2,29.91,NE,36,4.0,6.0,85,0.00,,,0.08,Wunderground v.1.15,2013-07-01 23:56:00,
2013-07-01 20:01:00,78.8,73.9,29.91,ENE,65,0.0,3.0,85,0.00,,,0.08,Wunderground v.1.15,2013-07-02 00:01:00,
2013-07-01 20:06:00,78.5,73.6,29.92,ESE,123,0.0,3.0,85,0.00,,,0.08,Wunderground v.1.15,2013-07-02 00:06:00,
2013-07-01 20:11:00,78.2,73.7,29.92,East,90,0.0,2.0,86,0.00,,,0.08,Wunderground v.1.15,2013-07-02 00:11:00,
2013-07-01 20:16:00,78.1,73.6,29.92,ENE,61,2.0,3.0,86,0.00,,,0.08,Wunderground v.1.15,2013-07-02 00:16:00,
2013-07-01 20:21:00,78.0,73.5,29.92,NE,35,1.0,2.0,86,0.00,,,0.08,Wunderground v.1.15,2013-07-02 00:21:00,
2013-07-01 20:26:00,77.8,73.6,29.92,East,92,2.0,3.0,87,0.00,,,0.08,Wunderground v.1.15,2013-07-02 00:26:00,
2013-07-01 20:31:00,77.6,73.4,29.91,ENE,62,1.0,1.0,87,0.00,,,0.08,Wunderground v.1.15,2013-07-02 00:31:00,
2013-07-01 20:36:00,77.6,73.8,29.92,NNE,13,2.0,7.0,88,0.00,,,0.08,Wunderground v.1.15,2013-07-02 00:36:00,
2013-07-01 20:41:00,77.5,73.7,29.92,NNW,340,0.0,2.0,88,0.00,,,0.08,Wunderground v.1.15,2013-07-02 00:41:00,
2013-07-01 20:46:00,77.4,73.9,29.92,NE,47,0.0,3.0,89,0.00,,,0.08,Wunderground v.1.15,2013-07-02 00:46:00,
2013-07-01 20:51:00,77.3,73.8,29.92,NNE,24,0.0,1.0,89,0.00,,,0.08,Wunderground v.1.15,2013-07-02 00:51:00,
2013-07-01 20:56:00,77.1,73.6,29.92,NNE,26,0.0,2.0,89,0.00,,,0.08,Wunderground v.1.15,2013-07-02 00:56:00,
2013-07-01 21:01:00,77.0,73.8,29.92,NNE,31,0.0,1.0,90,0.00,,,0.08,Wunderground v.1.15,2013-07-02 01:01:00,
2013-07-01 21:06:00,76.9,73.7,29.92,ENE,63,1.0,3.0,90,0.00,,,0.08,Wunderground v.1.15,2013-07-02 01:06:00,
2013-07-01 21:11:00,76.7,73.5,29.92,NE,36,0.0,2.0,90,0.00,,,0.08,Wunderground v.1.15,2013-07-02 01:11:00,
2013-07-01 21:16:00,76.6,73.4,29.92,SW,219,2.0,3.0,90,0.00,,,0.08,Wunderground v.1.15,2013-07-02 01:16:00,
2013-07-01 21:22:00,76.5,73.3,29.93,SSE,149,4.0,5.0,90,0.00,,,0.08,Wunderground v.1.15,2013-07-02 01:22:00,
2013-07-01 21:27:00,76.5,73.3,29.93,SE,139,2.0,5.0,90,0.00,,,0.08,Wunderground v.1.15,2013-07-02 01:27:00,
2013-07-01 21:32:00,76.5,73.3,29.93,ESE,123,0.0,4.0,90,0.00,,,0.08,Wunderground v.1.15,2013-07-02 01:32:00,
2013-07-01 21:37:00,76.4,73.2,29.93,ESE,123,0.0,4.0,90,0.00,,,0.08,Wunderground v.1.15,2013-07-02 01:37:00,
2013-07-01 21:42:00,76.2,73.1,29.93,ENE,76,0.0,2.0,90,0.00,,,0.08,Wunderground v.1.15,2013-07-02 01:42:00,
2013-07-01 21:47:00,76.1,73.0,29.93,East,88,0.0,3.0,90,0.00,,,0.08,Wunderground v.1.15,2013-07-02 01:47:00,
2013-07-01 21:52:00,76.1,73.0,29.94,North,358,1.0,3.0,90,0.00,,,0.08,Wunderground v.1.15,2013-07-02 01:52:00,
2013-07-01 21:57:00,76.1,73.3,29.94,ENE,77,0.0,5.0,91,0.00,,,0.08,Wunderground v.1.15,2013-07-02 01:57:00,
2013-07-01 22:02:00,76.1,73.3,29.94,SSW,213,0.0,4.0,91,0.00,,,0.08,Wunderground v.1.15,2013-07-02 02:02:00,
2013-07-01 22:07:00,76.1,73.3,29.94,SSW,208,1.0,5.0,91,0.00,,,0.08,Wunderground v.1.15,2013-07-02 02:07:00,
2013-07-01 22:12:00,76.0,73.2,29.94,NW,319,1.0,2.0,91,0.00,,,0.08,Wunderground v.1.15,2013-07-02 02:12:00,
2013-07-01 22:17:00,76.0,73.2,29.94,SW,221,0.0,3.0,91,0.00,,,0.08,Wunderground v.1.15,2013-07-02 02:17:00,
2013-07-01 22:22:00,76.0,73.2,29.94,North,9,1.0,3.0,91,0.00,,,0.08,Wunderground v.1.15,2013-07-02 02:22:00,
2013-07-01 22:27:00,75.9,73.1,29.94,SE,138,0.0,5.0,91,0.00,,,0.08,Wunderground v.1.15,2013-07-02 02:27:00,
2013-07-01 22:32:00,75.9,73.1,29.94,SW,216,3.0,5.0,91,0.00,,,0.08,Wunderground v.1.15,2013-07-02 02:32:00,
2013-07-01 22:37:00,76.0,73.2,29.95,ESE,106,0.0,5.0,91,0.00,,,0.08,Wunderground v.1.15,2013-07-02 02:37:00,
2013-07-01 22:42:00,75.9,73.4,29.95,ESE,106,0.0,2.0,92,0.00,,,0.08,Wunderground v.1.15,2013-07-02 02:42:00,
2013-07-01 22:47:00,76.0,73.5,29.95,SW,214,0.0,6.0,92,0.00,,,0.08,Wunderground v.1.15,2013-07-02 02:47:00,
2013-07-01 22:52:00,76.0,73.5,29.95,SE,128,1.0,3.0,92,0.00,,,0.08,Wunderground v.1.15,2013-07-02 02:52:00,
2013-07-01 22:57:00,76.0,73.5,29.95,SE,128,0.0,3.0,92,0.00,,,0.08,Wunderground v.1.15,2013-07-02 02:57:00,
2013-07-01 23:02:00,76.0,73.5,29.95,SSE,150,1.0,3.0,92,0.00,,,0.08,Wunderground v.1.15,2013-07-02 03:02:00,
2013-07-01 23:07:00,76.0,73.5,29.95,SSE,163,1.0,4.0,92,0.00,,,0.08,Wunderground v.1.15,2013-07-02 03:07:00,
2013-07-01 23:12:00,76.0,73.5,29.95,SSW,211,0.0,4.0,92,0.00,,,0.08,Wunderground v.1.15,2013-07-02 03:12:00,
2013-07-01 23:17:00,76.0,73.5,29.95,SSW,211,1.0,4.0,92,0.00,,,0.08,Wunderground v.1.15,2013-07-02 03:17:00,
2013-07-01 23:22:00,76.0,73.5,29.95,WSW,240,0.0,3.0,92,0.00,,,0.08,Wunderground v.1.15,2013-07-02 03:22:00,
2013-07-01 23:27:00,76.1,73.6,29.95,SSW,202,0.0,3.0,92,0.00,,,0.08,Wunderground v.1.15,2013-07-02 03:27:00,
2013-07-01 23:32:00,76.1,73.6,29.95,SE,146,0.0,3.0,92,0.00,,,0.08,Wunderground v.1.15,2013-07-02 03:32:00,
2013-07-01 23:37:00,76.1,73.6,29.95,SSW,205,3.0,4.0,92,0.00,,,0.08,Wunderground v.1.15,2013-07-02 03:37:00,
2013-07-01 23:42:00,76.2,73.4,29.96,SSE,147,1.0,4.0,91,0.00,,,0.08,Wunderground v.1.15,2013-07-02 03:42:00,
2013-07-01 23:47:00,76.2,73.4,29.96,SSW,194,0.0,4.0,91,0.00,,,0.08,Wunderground v.1.15,2013-07-02 03:47:00,
2013-07-01 23:52:00,76.2,73.4,29.96,SSE,156,0.0,4.0,91,0.00,,,0.08,Wunderground v.1.15,2013-07-02 03:52:00,
2013-07-01 23:57:00,76.2,73.4,29.96,SW,232,0.0,4.0,91,0.00,,,0.08,Wunderground v.1.15,2013-07-02 03:57:00,